Hilton Head Island, SC

9:20 AM EST on February 10, 2016 (GMT -0500)
Hilton Head

Weather History for KHXD - November, 2013

Change the Weather History Date:

Monday, November 18, 2013

  Actual Average Record
Temperature  
Mean Temperature 72 °F -  
Max Temperature 80 °F 70 °F 83 °F (1958)
Min Temperature 64 °F 48 °F 33 °F (2014)
Cooling Degree Days 7    
Growing Degree Days 22 (Base 50)    
Moisture  
Dew Point 66 °F    
Average Humidity 87    
Maximum Humidity 100    
Minimum Humidity 49    
Precipitation  
Precipitation 0.00 in - - ()
Sea Level Pressure  
Sea Level Pressure 29.94 in    
Wind  
Wind Speed 7 mph (SW)    
Max Wind Speed 12 mph    
Max Gust Speed 20 mph    
Visibility 9 miles    
Events      
Averages and records for this station are not official NWS values.
T = Trace of Precipitation, MM = Missing Value Source: NWS Daily Summary

Daily Weather History Graph

Daily Weather History Graph

Search for Another Location

Airport or City:

Trip Planner

Search our weather history database for the weather conditions in past years. The results will help you decide how hot, cold, wet, or windy it might be!

Date:

Astronomy

Nov. 18, 2013 Rise Set
Actual Time 6:54 AM EST 5:20 PM EST
Civil Twilight 6:28 AM EST 5:47 PM EST
Nautical Twilight 5:58 AM EST 6:16 PM EST
Astronomical Twilight 5:29 AM EST 6:46 PM EST
Moon 6:23 PM EST (11/18) 7:41 AM EST (11/18)
Length of Visible Light 11h 18m
Length of Day
10h 26m
Full, 99% of the Moon is Illuminated
Nov 18
Full
Nov 25
Last Quarter
Dec 2
New
Dec 9
First Quarter
Dec 17
Full

Hourly Weather History & Observations

Time (EST) Temp. Heat Index Dew Point Humidity Pressure Visibility Wind Dir Wind Speed Gust Speed Precip Events Conditions
12:15 AM 69.8 °F - 69.8 °F 100% 30.01 in 10.0 mi South 5.8 mph - 0.00 in   Clear
12:35 AM 69.8 °F - 69.8 °F 100% 30.01 in 10.0 mi South 5.8 mph - 0.00 in   Partly Cloudy
12:55 AM 69.8 °F - 68.0 °F 94% 30.01 in 10.0 mi South 6.9 mph - 0.00 in   Clear
1:15 AM 69.8 °F - 68.0 °F 94% 30.00 in 10.0 mi South 6.9 mph - 0.00 in   Scattered Clouds
1:35 AM 69.8 °F - 68.0 °F 94% 29.99 in 10.0 mi South 5.8 mph - 0.00 in   Mostly Cloudy
1:55 AM 69.8 °F - 68.0 °F 94% 29.99 in 10.0 mi South 5.8 mph - 0.00 in   Mostly Cloudy
2:15 AM 69.8 °F - 69.8 °F 100% 29.98 in 10.0 mi South 5.8 mph - 0.00 in   Overcast
2:35 AM 69.8 °F - 68.0 °F 94% 29.98 in 10.0 mi South 6.9 mph - 0.00 in   Overcast
2:55 AM 69.8 °F - 69.8 °F 100% 29.98 in 10.0 mi SSW 5.8 mph - 0.00 in   Mostly Cloudy
3:15 AM 69.8 °F - 69.8 °F 100% 29.97 in 10.0 mi SSW 6.9 mph - 0.00 in   Mostly Cloudy
3:35 AM 69.8 °F - 69.8 °F 100% 29.97 in 10.0 mi SSW 8.1 mph - 0.00 in   Mostly Cloudy
3:55 AM 69.8 °F - 69.8 °F 100% 29.96 in 9.0 mi SSW 6.9 mph - 0.00 in   Overcast
4:15 AM 69.8 °F - 69.8 °F 100% 29.95 in 5.0 mi SSW 6.9 mph - 0.00 in   Overcast
4:35 AM 69.8 °F - 68.0 °F 94% 29.95 in 7.0 mi SSW 6.9 mph - 0.00 in   Scattered Clouds
4:55 AM 69.8 °F - 69.8 °F 100% 29.94 in 7.0 mi SSW 5.8 mph - 0.00 in   Mostly Cloudy
5:15 AM 69.8 °F - 69.8 °F 100% 29.94 in 7.0 mi SW 8.1 mph - 0.00 in   Overcast
5:35 AM 69.8 °F - 69.8 °F 100% 29.95 in 6.0 mi SW 9.2 mph - 0.00 in   Overcast
6:45 AM 69.8 °F - 69.8 °F 100% 29.96 in 0.0 mi WSW 5.8 mph - N/A   Overcast
7:45 AM 71.6 °F - 69.8 °F 94% 29.96 in - WSW 9.2 mph - N/A   Overcast
8:20 AM 71.6 °F - 69.8 °F 94% 29.96 in - WSW 9.2 mph - N/A   Scattered Clouds
8:50 AM 71.6 °F - 68.0 °F 88% 29.98 in - SSW 9.2 mph - N/A   Overcast
9:50 AM 73.4 °F - 68.0 °F 83% 29.99 in - SW 9.2 mph - N/A   Overcast
10:50 AM 75.2 °F - 71.6 °F 89% 29.97 in - SW 10.4 mph - N/A   Mostly Cloudy
11:50 AM 75.2 °F - 71.6 °F 89% 29.95 in - SW 10.4 mph - N/A   Overcast
12:50 PM 75.2 °F - 71.6 °F 89% 29.91 in 10.0 mi SW 6.9 mph - N/A   Scattered Clouds
1:50 PM 78.8 °F - 71.6 °F 78% 29.90 in 10.0 mi SW 6.9 mph - N/A   Mostly Cloudy
2:50 PM 78.8 °F - 71.6 °F 78% 29.88 in 10.0 mi SW 8.1 mph - N/A   Mostly Cloudy
3:50 PM 80.6 °F 84.6 °F 71.6 °F 74% 29.87 in 10.0 mi SSW 8.1 mph - N/A   Scattered Clouds
4:50 PM 77.0 °F - 71.6 °F 83% 29.87 in 10.0 mi SSW 4.6 mph - N/A   Clear
5:50 PM 71.6 °F - 69.8 °F 94% 29.88 in 10.0 mi Calm Calm - N/A   Clear
6:50 PM 71.6 °F - 69.8 °F 94% 29.88 in 10.0 mi SSW 4.6 mph - N/A   Clear
7:50 PM 69.8 °F - 69.8 °F 100% 29.89 in 10.0 mi SSW 4.6 mph - N/A   Clear
8:15 PM 71.6 °F - 69.8 °F 94% 29.89 in 10.0 mi SSW 6.9 mph - 0.00 in   Clear
8:35 PM 71.6 °F - 71.6 °F 100% 29.90 in 10.0 mi WSW 8.1 mph - 0.00 in   Scattered Clouds
8:55 PM 71.6 °F - 69.8 °F 94% 29.90 in 10.0 mi WSW 5.8 mph - 0.00 in   Partly Cloudy
9:15 PM 71.6 °F - 69.8 °F 94% 29.90 in 10.0 mi WNW 6.9 mph - 0.00 in   Clear
9:35 PM 71.6 °F - 62.6 °F 73% 29.91 in 10.0 mi NW 10.4 mph 19.6 mph 0.00 in   Clear
9:55 PM 69.8 °F - 53.6 °F 56% 29.92 in 10.0 mi NNW 11.5 mph 19.6 mph 0.00 in   Clear
10:15 PM 69.8 °F - 53.6 °F 56% 29.93 in 10.0 mi NW 6.9 mph - 0.00 in   Clear
10:35 PM 68.0 °F - 48.2 °F 49% 29.94 in 10.0 mi NW 9.2 mph - 0.00 in   Clear
10:55 PM 66.2 °F - 48.2 °F 52% 29.94 in 10.0 mi NW 6.9 mph - 0.00 in   Clear
11:15 PM 66.2 °F - 46.4 °F 49% 29.94 in 10.0 mi NW 8.1 mph - 0.00 in   Clear
11:35 PM 64.4 °F - 46.4 °F 52% 29.95 in 10.0 mi NW 4.6 mph - 0.00 in   Clear
11:55 PM 64.4 °F - 44.6 °F 49% 29.95 in 10.0 mi NW 9.2 mph - 0.00 in   Clear